When you browse on this site, cookies collect data to enhance your experience and personalize the content and advertising you see.
Visit our Privacy Policy to learn more. By continuing to use the site, you agree to this use of cookies and data.
  • In Lithuania
  • List of Countries
  • For 7 days
  • Water Temperature
  • Satellite Maps
  • Weather Map
  • Weather Widgets
  • user-avatar
    Login

    Hourly Weather Maracay

    Today, 13 December, Thursday

    Time Temperature Precipitation Wind Pressure Humidity
    00:00 +23°C° 0 mm 2 mps 712 mmHg 86%
    01:00 +23°C° 0 mm 2 mps 712 mmHg 88%
    02:00 +21°C° 0 mm 2 mps 712 mmHg 88%
    03:00 +21°C° 0 mm 2 mps 712 mmHg 89%
    04:00 +22°C° 0 mm 1 mps 712 mmHg 90%
    05:00 +23°C° 0 mm 2 mps 713 mmHg 87%
    06:00 +23°C° 0 mm 2 mps 713 mmHg 84%
    07:00 +24°C° 0 mm 2 mps 713 mmHg 81%
    08:00 +26°C° 0 mm 2 mps 714 mmHg 72%
    09:00 +28°C° 0 mm 2 mps 714 mmHg 63%
    10:00 +30°C° 0 mm 2 mps 714 mmHg 54%
    11:00 +30°C° 0 mm 3 mps 714 mmHg 52%
    12:00 +31°C° 0 mm 3 mps 714 mmHg 49%
    13:00 +31°C° 0 mm 3 mps 713 mmHg 46%
    14:00 +31°C° 0 mm 3 mps 713 mmHg 50%
    15:00 +30°C° 0 mm 3 mps 712 mmHg 54%
    16:00 +29°C° 0 mm 3 mps 712 mmHg 58%
    17:00 +27°C° 0 mm 2 mps 712 mmHg 65%
    18:00 +25°C° 0 mm 2 mps 712 mmHg 72%
    19:00 +24°C° 0 mm 2 mps 712 mmHg 79%
    20:00 +23°C° 0 mm 2 mps 712 mmHg 81%
    21:00 +23°C° 0 mm 2 mps 712 mmHg 84%
    22:00 +21°C° 0 mm 2 mps 713 mmHg 87%
    23:00 +21°C° 0 mm 2 mps 712 mmHg 88%

    Tomorrow, 14 December, Friday

    Time Temperature Precipitation Wind Pressure Humidity
    00:00 +21°C° 0 mm 2 mps 712 mmHg 88%
    01:00 +21°C° 0 mm 2 mps 712 mmHg 89%
    02:00 +21°C° 0 mm 2 mps 712 mmHg 90%
    03:00 +21°C° 0 mm 2 mps 712 mmHg 90%
    04:00 +20°C° 0 mm 2 mps 712 mmHg 90%
    05:00 +21°C° 0 mm 2 mps 712 mmHg 87%
    06:00 +23°C° 0 mm 2 mps 713 mmHg 84%
    07:00 +24°C° 0 mm 1 mps 714 mmHg 81%
    08:00 +25°C° 0 mm 2 mps 714 mmHg 73%
    09:00 +27°C° 0 mm 2 mps 715 mmHg 65%
    10:00 +29°C° 0 mm 2 mps 715 mmHg 57%
    11:00 +29°C° 0 mm 2 mps 714 mmHg 57%
    12:00 +29°C° 0 mm 2 mps 713 mmHg 56%
    13:00 +29°C° 0 mm 2 mps 713 mmHg 56%
    14:00 +29°C° 0 mm 2 mps 712 mmHg 58%
    15:00 +29°C° 0 mm 2 mps 712 mmHg 60%
    16:00 +28°C° 0 mm 2 mps 711 mmHg 62%
    17:00 +27°C° 0 mm 2 mps 712 mmHg 69%
    18:00 +25°C° 0 mm 2 mps 712 mmHg 76%
    19:00 +22°C° 0 mm 3 mps 712 mmHg 83%
    20:00 +23°C° 0 mm 2 mps 713 mmHg 84%
    21:00 +23°C° 0 mm 2 mps 713 mmHg 86%
    22:00 +23°C° 0 mm 2 mps 713 mmHg 87%
    23:00 +21°C° 0 mm 2 mps 713 mmHg 88%

    Day after tomorrow, 15 December, Saturday

    Time Temperature Precipitation Wind Pressure Humidity
    00:00 +21°C° 0 mm 2 mps 713 mmHg 88%
    01:00 +21°C° 0 mm 2 mps 713 mmHg 89%
    02:00 +21°C° 0 mm 2 mps 712 mmHg 89%
    03:00 +22°C° 0 mm 1 mps 712 mmHg 89%
    04:00 +22°C° 0 mm 1 mps 712 mmHg 89%
    05:00 +22°C° 0 mm 1 mps 713 mmHg 85%
    06:00 +23°C° 0 mm 2 mps 714 mmHg 81%
    07:00 +24°C° 0 mm 2 mps 714 mmHg 78%
    08:00 +26°C° 0 mm 2 mps 715 mmHg 70%
    09:00 +27°C° 0 mm 2 mps 715 mmHg 62%
    10:00 +29°C° 0 mm 3 mps 715 mmHg 54%
    11:00 +30°C° 0 mm 3 mps 715 mmHg 53%
    12:00 +30°C° 0 mm 3 mps 714 mmHg 52%
    13:00 +30°C° 0 mm 3 mps 713 mmHg 51%
    14:00 +30°C° 0 mm 3 mps 713 mmHg 55%
    15:00 +29°C° 0 mm 3 mps 712 mmHg 59%
    16:00 +28°C° 0 mm 3 mps 712 mmHg 63%
    17:00 +26°C° 0 mm 2 mps 712 mmHg 70%
    18:00 +25°C° 0 mm 2 mps 712 mmHg 76%
    19:00 +24°C° 0 mm 2 mps 713 mmHg 83%
    20:00 +23°C° 0 mm 2 mps 713 mmHg 85%
    21:00 +23°C° 0 mm 2 mps 713 mmHg 87%
    22:00 +21°C° 0 mm 2 mps 713 mmHg 89%
    23:00 +21°C° 0 mm 2 mps 713 mmHg 90%

    16 December, Sunday

    Time Temperature Precipitation Wind Pressure Humidity
    00:00 +21°C° 0 mm 2 mps 713 mmHg 90%
    01:00 +20°C° 0 mm 2 mps 713 mmHg 91%
    02:00 +20°C° 0 mm 2 mps 713 mmHg 91%
    03:00 +20°C° 0 mm 2 mps 713 mmHg 91%
    04:00 +20°C° 0 mm 2 mps 713 mmHg 91%
    05:00 +20°C° 0 mm 2 mps 713 mmHg 88%
    06:00 +21°C° 0 mm 2 mps 714 mmHg 84%
    07:00 +23°C° 0 mm 1 mps 714 mmHg 80%
    08:00 +25°C° 0 mm 2 mps 715 mmHg 66%
    09:00 +27°C° 0 mm 2 mps 715 mmHg 53%
    10:00 +30°C° 0 mm 2 mps 716 mmHg 39%
    11:00 +30°C° 0 mm 2 mps 715 mmHg 38%
    12:00 +31°C° 0 mm 3 mps 714 mmHg 38%
    13:00 +31°C° 0 mm 3 mps 713 mmHg 37%
    14:00 +30°C° 0 mm 3 mps 712 mmHg 42%
    15:00 +30°C° 0 mm 3 mps 712 mmHg 47%
    16:00 +29°C° 0 mm 2 mps 711 mmHg 51%
    17:00 +27°C° 0 mm 2 mps 711 mmHg 60%
    18:00 +25°C° 0 mm 2 mps 712 mmHg 69%
    19:00 +23°C° 0 mm 2 mps 712 mmHg 78%
    20:00 +23°C° 0 mm 2 mps 712 mmHg 81%
    21:00 +23°C° 0 mm 2 mps 712 mmHg 85%
    22:00 +21°C° 0 mm 2 mps 712 mmHg 89%
    23:00 +21°C° 0 mm 2 mps 712 mmHg 90%

    17 December, Monday

    Time Temperature Precipitation Wind Pressure Humidity
    00:00 +21°C° 0 mm 2 mps 712 mmHg 91%
    01:00 +21°C° 0 mm 2 mps 712 mmHg 91%
    02:00 +21°C° 0 mm 2 mps 712 mmHg 91%
    03:00 +21°C° 0 mm 2 mps 712 mmHg 91%
    04:00 +22°C° 0 mm 1 mps 712 mmHg 91%
    05:00 +22°C° 0 mm 1 mps 712 mmHg 87%
    06:00 +23°C° 0 mm 1 mps 713 mmHg 84%
    07:00 +24°C° 0 mm 1 mps 714 mmHg 80%
    08:00 +26°C° 0 mm 1 mps 714 mmHg 71%
    09:00 +28°C° 0 mm 2 mps 714 mmHg 61%
    10:00 +30°C° 0 mm 2 mps 714 mmHg 52%
    11:00 +30°C° 0 mm 2 mps 713 mmHg 51%
    12:00 +31°C° 0 mm 2 mps 712 mmHg 49%
    13:00 +31°C° 0 mm 3 mps 712 mmHg 48%
    14:00 +31°C° 0 mm 2 mps 711 mmHg 51%
    15:00 +30°C° 0 mm 2 mps 711 mmHg 54%
    16:00 +29°C° 0 mm 2 mps 710 mmHg 57%
    17:00 +27°C° 0 mm 2 mps 710 mmHg 65%
    18:00 +26°C° 0 mm 2 mps 711 mmHg 72%
    19:00 +24°C° 0 mm 2 mps 711 mmHg 79%
    20:00 +23°C° 0 mm 2 mps 711 mmHg 82%
    21:00 +23°C° 0 mm 2 mps 711 mmHg 85%
    22:00 +23°C° 0 mm 2 mps 712 mmHg 88%
    23:00 +21°C° 0 mm 2 mps 712 mmHg 88%

    18 December, Tuesday

    Time Temperature Precipitation Wind Pressure Humidity
    00:00 +21°C° 0 mm 2 mps 711 mmHg 89%
    01:00 +21°C° 0 mm 2 mps 711 mmHg 90%
    02:00 +22°C° 0 mm 1 mps 711 mmHg 90%
    03:00 +21°C° 0 mm 1 mps 711 mmHg 89%
    04:00 +21°C° 0 mm 1 mps 711 mmHg 89%
    05:00 +22°C° 0 mm 1 mps 712 mmHg 84%
    06:00 +23°C° 0 mm 1 mps 712 mmHg 78%
    07:00 +24°C° 0 mm 1 mps 713 mmHg 73%
    08:00 +26°C° 0 mm 2 mps 713 mmHg 66%
    09:00 +28°C° 0 mm 2 mps 713 mmHg 58%
    10:00 +30°C° 0 mm 2 mps 714 mmHg 50%
    11:00 +31°C° 0 mm 2 mps 713 mmHg 49%
    12:00 +31°C° 0 mm 3 mps 712 mmHg 48%
    13:00 +33°C° 0 mm 3 mps 711 mmHg 48%
    14:00 +31°C° 0 mm 3 mps 710 mmHg 51%
    15:00 +30°C° 0 mm 3 mps 710 mmHg 54%
    16:00 +29°C° 0 mm 2 mps 710 mmHg 58%
    17:00 +28°C° 0 mm 2 mps 710 mmHg 65%
    18:00 +26°C° 0 mm 2 mps 710 mmHg 72%
    19:00 +24°C° 0 mm 2 mps 711 mmHg 80%
    20:00 +24°C° 0 mm 2 mps 711 mmHg 82%
    21:00 +23°C° 0 mm 2 mps 711 mmHg 84%
    22:00 +23°C° 0 mm 2 mps 712 mmHg 86%
    23:00 +23°C° 0 mm 2 mps 711 mmHg 88%
    Show more